Flag for Colombia Weather past 2 weeks in Bogota, Colombia

Now
55 °F

Passing clouds.


Feels Like: 54 °F
Forecast: 46 / 61 °F
Wind: 7 mph from Northwest

Location: Bogota / Eldorado

Current Time: Sep 21, 2014 at 7:26:47 PM

Latest Report: Sep 21, 2014 at 7:00 PM


Visibility: N/A

Pressure: 30.31 "Hg

Humidity: 88%

Dew point: 52 °F

Location of BogotaLocation

Historic Weather in Bogota — Graph

°F

Bogota temperature yesterday

Maximum temperature yesterday: 66 °F (at 2:00 PM)
Minimum temperature yesterday: 52 °F (at 6:00 AM)
Average temperature yesterday: 56 °F

Past Weeks' High & Low Weather Summary

 TemperatureHumidityPressure
High68 °F (Sep 9, 3:00 PM)100% (Sep 17, 4:00 AM)30.44 "Hg (Sep 17, 4:00 AM)
Low41 °F (Sep 10, 6:00 AM)42% (Sep 9, 6:00 PM)30.17 "Hg (Sep 11, 4:00 PM)
Average57 °F74%30.32 "Hg
* Reported Sep 6 6:00 PM — Sep 21 6:00 PM, Bogota, Weather by CustomWeather, © 2014

Note: Actual official high and low records may vary slightly from our data, if they occured in-between our weather recording intervals... More about our weather records

Advertising

Bogota weather history for previous 24 hours

 ConditionsComfort  
Time TempWeatherWind HumidityBarometerVisibility
6:00 PM
Sep 21
57 °FLight rain. Passing clouds.5 mph82%30.29 "HgN/A
5:00 PM59 °FHeavy rain. Partly sunny.7 mph82%30.27 "Hg6 mi
4:00 PM63 °FPartly sunny.7 mph73%30.27 "HgN/A
3:00 PM64 °FPartly sunny.9 mph73%30.28 "HgN/A
2:00 PM63 °FScattered showers. Partly sunny.9 mph73%30.30 "HgN/A
1:00 PM63 °FPartly sunny.12 mph73%30.32 "HgN/A
12:00 PM63 °FScattered showers. Partly sunny.9 mph68%30.37 "HgN/A
11:00 AM61 °FBroken clouds.5 mph68%30.40 "HgN/A
10:00 AM61 °FBroken clouds.2 mph68%30.42 "HgN/A
9:00 AM57 °FBroken clouds.3 mph82%30.43 "HgN/A
8:00 AM57 °FBroken clouds.3 mph88%30.41 "HgN/A
7:00 AM54 °FBroken clouds.2 mph94%30.40 "HgN/A
6:00 AM52 °FBroken clouds.2 mph100%30.36 "HgN/A
5:00 AM52 °FPartly cloudy.3 mph100%30.34 "HgN/A
4:00 AM52 °FPartly cloudy.2 mph94%30.32 "HgN/A
3:00 AM52 °FPassing clouds.2 mph94%30.32 "HgN/A
2:00 AM54 °FPassing clouds.2 mph94%30.33 "HgN/A
1:00 AM54 °FPassing clouds.2 mph94%30.35 "HgN/A
12:00 AM54 °FPassing clouds.2 mph94%30.36 "HgN/A
11:00 PM
Sep 20
54 °FPassing clouds.2 mph94%30.38 "HgN/A
10:00 PM55 °FPassing clouds.2 mph88%30.39 "HgN/A
9:00 PM55 °FPassing clouds.3 mph88%30.38 "HgN/A
8:00 PM55 °FPassing clouds.2 mph88%30.33 "HgN/A
7:00 PM55 °FScattered showers. Passing clouds.3 mph94%30.30 "Hg6 mi
Weather by CustomWeather, © 2014

See weather overviewHow to use our weather pages